QPF
0.00 0.01 0.01 0.01 0.01 0.02 0.02 0.04 0.04 0.04 0.04 0.04 0.04 0.04 0.04 0.04 0.05 0.05 0.05 0.05 0.04 0.04 0.05 0.05 0.04 0.04 0.04 0.04 0.04 0.04 0.05 0.05 0.05 0.03 0.02 0.02 0.02 0.02 0.02 0.02 0.02 0.02 0.02
0.00 0.00 0.00 0.01 0.01 0.01 0.02 0.02 0.03 0.03 0.03 0.03 0.04 0.04 0.04 0.03 0.03 0.03 0.03 0.03 0.03 0.03 0.04 0.04 0.04 0.04 0.04 0.04 0.04 0.04 0.05 0.05 0.06 0.05 0.03 0.03 0.03 0.03 0.03 0.03 0.03 0.03 0.02
0.00 0.00 0.00 0.00 0.01 0.01 0.01 0.01 0.01 0.02 0.02 0.03 0.04 0.04 0.04 0.04 0.03 0.03 0.03 0.02 0.02 0.02 0.02 0.03 0.03 0.03 0.03 0.04 0.04 0.04 0.04 0.04 0.05 0.06 0.06 0.05 0.04 0.04 0.04 0.04 0.04 0.04 0.04
0.00 0.00 0.00 0.00 0.00 0.00 0.00 0.01 0.01 0.01 0.01 0.02 0.02 0.03 0.03 0.03 0.03 0.03 0.03 0.03 0.02 0.02 0.02 0.02 0.02 0.02 0.02 0.02 0.03 0.02 0.03 0.03 0.04 0.05 0.05 0.06 0.07 0.06 0.06 0.06 0.06 0.05 0.05
0.00 0.00 0.01 0.01 0.01 0.01 0.01 0.01 0.01 0.01 0.01 0.01 0.01 0.01 0.02 0.02 0.03 0.03 0.03 0.03 0.02 0.02 0.02 0.02 0.02 0.02 0.02 0.03 0.03 0.03 0.04 0.04 0.04 0.04 0.05 0.05 0.05 0.05 0.04 0.04 0.04 0.03 0.03
0.00 0.00 0.00 0.00 0.01 0.01 0.01 0.01 0.01 0.01 0.01 0.01 0.01 0.01 0.01 0.02 0.02 0.03 0.03 0.03 0.03 0.03 0.03 0.03 0.03 0.03 0.03 0.03 0.03 0.03 0.04 0.05 0.05 0.05 0.05 0.05 0.04 0.05 0.05 0.05 0.05 0.04 0.04
0.00 0.00 0.00 0.00 0.00 0.00 0.00 0.01 0.01 0.01 0.01 0.01 0.01 0.01 0.01 0.01 0.02 0.02 0.02 0.02 0.02 0.02 0.03 0.03 0.03 0.03 0.03 0.02 0.03 0.03 0.03 0.04 0.04 0.05 0.06 0.05 0.05 0.06 0.06 0.06 0.06 0.06 0.05
0.00 0.00 0.00 0.00 0.00 0.00 0.00 0.00 0.01 0.01 0.01 0.01 0.01 0.01 0.01 0.01 0.01 0.01 0.01 0.02 0.02 0.02 0.02 0.02 0.02 0.03 0.03 0.03 0.03 0.03 0.03 0.03 0.03 0.04 0.04 0.05 0.06 0.07 0.07 0.08 0.08 0.07 0.06
0.00 0.00 0.00 0.00 0.00 0.00 0.00 0.00 0.00 0.01 0.01 0.01 0.01 0.01 0.01 0.01 0.01 0.01 0.01 0.01 0.01 0.02 0.02 0.03 0.03 0.02 0.03 0.02 0.02 0.02 0.02 0.02 0.03 0.03 0.03 0.03 0.03 0.04 0.04 0.04 0.05 0.05 0.05
0.00 0.00 0.00 0.00 0.00 0.00 0.00 0.00 0.00 0.00 0.00 0.00 0.01 0.01 0.01 0.01 0.01 0.01 0.01 0.01 0.01 0.01 0.01 0.02 0.02 0.03 0.03 0.03 0.02 0.02 0.02 0.02 0.02 0.02 0.02 0.03 0.02 0.02 0.02 0.03 0.03 0.04 0.04
0.00 0.00 0.00 0.00 0.00 0.00 0.00 0.00 0.00 0.00 0.00 0.00 0.00 0.01 0.01 0.01 0.01 0.01 0.01 0.01 0.01 0.01 0.01 0.01 0.01 0.02 0.02 0.02 0.02 0.02 0.02 0.03 0.03 0.03 0.03 0.03 0.03 0.03 0.02 0.02 0.02 0.02 0.03
0.00 0.00 0.00 0.00 0.00 0.00 0.00 0.00 0.00 0.00 0.00 0.00 0.00 0.01 0.01 0.01 0.01 0.01 0.01 0.01 0.01 0.01 0.01 0.01 0.02 0.02 0.02 0.02 0.02 0.02 0.02 0.02 0.02 0.02 0.02 0.02 0.02 0.02 0.02 0.02 0.01 0.01 0.02
0.00 0.00 0.00 0.00 0.00 0.00 0.00 0.00 0.00 0.00 0.00 0.00 0.01 0.01 0.01 0.01 0.01 0.01 0.01 0.01 0.02 0.01 0.02 0.02 0.02 0.02 0.02 0.02 0.02 0.02 0.02 0.02 0.02 0.02 0.02 0.02 0.02 0.02 0.02 0.02 0.01 0.01 0.01
0.01 0.01 0.01 0.01 0.00 0.00 0.00 0.00 0.00 0.00 0.00 0.00 0.01 0.01 0.01 0.01 0.01 0.01 0.01 0.01 0.02 0.02 0.02 0.02 0.02 0.03 0.03 0.03 0.03 0.02 0.02 0.02 0.02 0.02 0.02 0.02 0.02 0.02 0.02 0.02 0.02 0.01 0.02
0.01 0.01 0.01 0.01 0.01 0.01 0.00 0.00 0.00 0.01 0.01 0.01 0.01 0.01 0.01 0.02 0.02 0.02 0.02 0.02 0.01 0.02 0.02 0.02 0.03 0.03 0.03 0.03 0.03 0.02 0.02 0.02 0.02 0.02 0.02 0.02 0.02 0.02 0.02 0.01 0.01 0.01 0.02
0.01 0.01 0.01 0.01 0.01 0.01 0.01 0.01 0.01 0.01 0.01 0.01 0.01 0.02 0.02 0.02 0.02 0.02 0.02 0.02 0.02 0.02 0.02 0.03 0.02 0.02 0.02 0.02 0.02 0.02 0.02 0.02 0.02 0.02 0.02 0.02 0.02 0.02 0.02 0.02 0.01 0.01 0.01
0.01 0.01 0.01 0.01 0.01 0.01 0.01 0.01 0.01 0.01 0.01 0.01 0.01 0.01 0.02 0.02 0.02 0.02 0.02 0.02 0.03 0.03 0.03 0.03 0.02 0.02 0.02 0.02 0.02 0.02 0.02 0.02 0.02 0.02 0.02 0.02 0.02 0.02 0.02 0.02 0.02 0.01 0.01
0.00 0.01 0.01 0.01 0.01 0.01 0.01 0.01 0.01 0.01 0.01 0.01 0.01 0.01 0.02 0.02 0.02 0.02 0.02 0.03 0.03 0.03 0.03 0.03 0.03 0.03 0.02 0.03 0.03 0.02 0.02 0.02 0.02 0.02 0.02 0.02 0.02 0.02 0.02 0.02 0.02 0.02 0.02
0.01 0.01 0.01 0.01 0.01 0.01 0.01 0.01 0.01 0.01 0.01 0.01 0.01 0.01 0.02 0.02 0.02 0.02 0.02 0.02 0.02 0.02 0.02 0.02 0.03 0.03 0.02 0.02 0.02 0.02 0.02 0.01 0.01 0.01 0.01 0.01 0.01 0.02 0.02 0.02 0.02 0.02 0.02
0.01 0.01 0.01 0.01 0.01 0.01 0.01 0.01 0.01 0.01 0.01 0.01 0.01 0.02 0.02 0.02 0.03 0.02 0.02 0.02 0.02 0.02 0.02 0.02 0.02 0.02 0.02 0.02 0.02 0.01 0.01 0.01 0.01 0.01 0.01 0.01 0.01 0.01 0.01 0.01 0.02 0.02 0.02
0.01 0.01 0.01 0.01 0.01 0.01 0.02 0.02 0.01 0.02 0.02 0.02 0.02 0.02 0.02 0.02 0.02 0.02 0.02 0.02 0.02 0.02 0.02 0.02 0.01 0.01 0.01 0.01 0.01 0.01 0.01 0.01 0.01 0.01 0.01 0.01 0.01 0.01 0.01 0.01 0.01 0.01 0.01
0.01 0.01 0.01 0.01 0.01 0.02 0.02 0.02 0.02 0.02 0.02 0.02 0.03 0.03 0.03 0.03 0.02 0.02 0.02 0.02 0.02 0.02 0.01 0.01 0.01 0.01 0.01 0.01 0.01 0.01 0.01 0.01 0.01 0.01 0.01 0.01 0.01 0.01 0.01 0.01 0.01 0.01 0.01
0.01 0.01 0.01 0.01 0.01 0.02 0.02 0.02 0.02 0.02 0.02 0.03 0.03 0.03 0.03 0.03 0.03 0.02 0.02 0.02 0.01 0.01 0.01 0.01 0.01 0.01 0.01 0.01 0.01 0.01 0.01 0.01 0.01 0.01 0.01 0.01 0.01 0.01 0.01 0.01 0.01 0.01 0.01
0.01 0.01 0.01 0.01 0.01 0.02 0.02 0.02 0.03 0.03 0.03 0.03 0.03 0.03 0.03 0.03 0.02 0.02 0.02 0.02 0.01 0.01 0.01 0.01 0.01 0.01 0.01 0.01 0.01 0.01 0.01 0.01 0.01 0.01 0.01 0.01 0.01 0.01 0.01 0.01 0.01 0.01 0.01
0.01 0.01 0.01 0.01 0.01 0.02 0.02 0.03 0.04 0.04 0.04 0.04 0.03 0.03 0.03 0.03 0.02 0.02 0.01 0.01 0.01 0.01 0.01 0.01 0.01 0.01 0.01 0.01 0.00 0.00 0.00 0.00 0.00 0.01 0.01 0.01 0.01 0.01 0.01 0.01 0.01 0.01 0.01
0.02 0.02 0.02 0.02 0.02 0.02 0.03 0.03 0.04 0.04 0.04 0.04 0.04 0.03 0.03 0.03 0.02 0.02 0.01 0.01 0.01 0.01 0.01 0.01 0.01 0.01 0.01 0.00 0.00 0.00 0.00 0.00 0.01 0.01 0.01 0.01 0.01 0.01 0.01 0.01 0.01 0.01 0.01
MSLP
1018.82 1018.79 1018.67 1018.44 1018.09 1017.63 1017.10 1016.53 1015.96 1015.41 1014.90 1014.45 1014.04 1013.66 1013.31 1012.95 1012.59 1012.23 1011.89 1011.57 1011.31 1011.11 1010.98 1010.92 1010.91 1010.93 1010.94 1010.92 1010.82 1010.64 1010.36 1010.01 1009.59 1009.15 1008.71 1008.32 1007.99 1007.74 1007.59 1007.52 1007.51 1007.55 1007.60
1018.91 1018.86 1018.73 1018.50 1018.17 1017.74 1017.23 1016.69 1016.13 1015.59 1015.08 1014.60 1014.15 1013.72 1013.30 1012.87 1012.43 1011.98 1011.54 1011.12 1010.75 1010.45 1010.22 1010.06 1009.96 1009.91 1009.86 1009.80 1009.69 1009.51 1009.27 1008.95 1008.58 1008.17 1007.77 1007.39 1007.07 1006.82 1006.65 1006.56 1006.55 1006.59 1006.66
1018.81 1018.72 1018.55 1018.31 1017.99 1017.58 1017.12 1016.62 1016.11 1015.60 1015.10 1014.63 1014.17 1013.71 1013.25 1012.77 1012.27 1011.76 1011.24 1010.75 1010.29 1009.90 1009.57 1009.30 1009.11 1008.96 1008.84 1008.73 1008.59 1008.41 1008.18 1007.90 1007.57 1007.21 1006.84 1006.50 1006.19 1005.94 1005.77 1005.67 1005.65 1005.70 1005.79
1018.55 1018.38 1018.17 1017.91 1017.59 1017.21 1016.80 1016.36 1015.90 1015.44 1014.99 1014.54 1014.08 1013.62 1013.14 1012.63 1012.09 1011.54 1010.97 1010.42 1009.90 1009.42 1009.01 1008.65 1008.36 1008.12 1007.92 1007.74 1007.57 1007.38 1007.16 1006.91 1006.63 1006.32 1006.00 1005.69 1005.41 1005.17 1005.00 1004.90 1004.88 1004.93 1005.06
1018.14 1017.89 1017.63 1017.35 1017.04 1016.70 1016.34 1015.96 1015.58 1015.17 1014.77 1014.35 1013.91 1013.44 1012.95 1012.42 1011.86 1011.28 1010.69 1010.10 1009.53 1008.99 1008.50 1008.07 1007.69 1007.37 1007.10 1006.87 1006.66 1006.46 1006.26 1006.05 1005.82 1005.56 1005.30 1005.03 1004.78 1004.56 1004.39 1004.29 1004.27 1004.34 1004.50
1017.65 1017.33 1017.03 1016.73 1016.44 1016.14 1015.83 1015.52 1015.19 1014.84 1014.47 1014.08 1013.65 1013.18 1012.67 1012.12 1011.54 1010.94 1010.32 1009.71 1009.10 1008.53 1007.99 1007.50 1007.06 1006.68 1006.36 1006.09 1005.86 1005.67 1005.50 1005.33 1005.16 1004.97 1004.77 1004.56 1004.35 1004.15 1004.00 1003.90 1003.89 1003.97 1004.15
1017.11 1016.74 1016.42 1016.12 1015.84 1015.58 1015.32 1015.06 1014.78 1014.47 1014.13 1013.74 1013.30 1012.81 1012.27 1011.70 1011.09 1010.46 1009.83 1009.20 1008.58 1007.98 1007.42 1006.91 1006.44 1006.03 1005.68 1005.40 1005.18 1005.01 1004.88 1004.78 1004.68 1004.57 1004.45 1004.31 1004.15 1003.99 1003.85 1003.77 1003.75 1003.83 1004.01
1016.55 1016.17 1015.84 1015.55 1015.29 1015.06 1014.84 1014.61 1014.36 1014.07 1013.72 1013.31 1012.84 1012.31 1011.73 1011.11 1010.46 1009.81 1009.16 1008.52 1007.91 1007.32 1006.77 1006.26 1005.80 1005.39 1005.06 1004.80 1004.61 1004.49 1004.42 1004.40 1004.39 1004.37 1004.34 1004.28 1004.18 1004.07 1003.96 1003.88 1003.86 1003.92 1004.09
1015.99 1015.61 1015.28 1015.01 1014.78 1014.57 1014.37 1014.16 1013.91 1013.60 1013.22 1012.77 1012.24 1011.65 1011.01 1010.34 1009.66 1008.98 1008.32 1007.69 1007.10 1006.54 1006.03 1005.56 1005.15 1004.79 1004.51 1004.30 1004.17 1004.12 1004.13 1004.19 1004.28 1004.37 1004.43 1004.45 1004.43 1004.37 1004.29 1004.23 1004.19 1004.23 1004.37
1015.42 1015.05 1014.74 1014.49 1014.27 1014.07 1013.87 1013.65 1013.38 1013.03 1012.61 1012.09 1011.49 1010.83 1010.13 1009.41 1008.69 1008.00 1007.35 1006.75 1006.21 1005.72 1005.28 1004.88 1004.55 1004.27 1004.06 1003.93 1003.88 1003.91 1004.01 1004.16 1004.34 1004.53 1004.69 1004.80 1004.85 1004.85 1004.81 1004.75 1004.71 1004.72 1004.81
1014.83 1014.49 1014.19 1013.94 1013.72 1013.52 1013.30 1013.05 1012.74 1012.34 1011.85 1011.27 1010.61 1009.88 1009.12 1008.37 1007.63 1006.95 1006.34 1005.79 1005.32 1004.92 1004.58 1004.30 1004.07 1003.89 1003.78 1003.74 1003.77 1003.89 1004.07 1004.30 1004.57 1004.84 1005.08 1005.27 1005.40 1005.45 1005.45 1005.41 1005.37 1005.35 1005.39
1014.23 1013.90 1013.60 1013.34 1013.11 1012.88 1012.64 1012.34 1011.98 1011.53 1010.99 1010.35 1009.63 1008.86 1008.07 1007.30 1006.58 1005.93 1005.38 1004.92 1004.55 1004.27 1004.05 1003.89 1003.78 1003.72 1003.71 1003.76 1003.88 1004.06 1004.31 1004.61 1004.93 1005.26 1005.57 1005.83 1006.02 1006.13 1006.17 1006.15 1006.11 1006.08 1006.08
1013.64 1013.29 1012.97 1012.69 1012.42 1012.16 1011.87 1011.54 1011.13 1010.64 1010.05 1009.37 1008.63 1007.85 1007.06 1006.32 1005.64 1005.06 1004.59 1004.24 1003.99 1003.84 1003.75 1003.73 1003.74 1003.79 1003.88 1004.02 1004.20 1004.43 1004.72 1005.05 1005.42 1005.78 1006.13 1006.43 1006.67 1006.83 1006.91 1006.93 1006.91 1006.87 1006.85
1013.06 1012.67 1012.32 1011.99 1011.68 1011.38 1011.05 1010.67 1010.24 1009.72 1009.11 1008.43 1007.70 1006.94 1006.20 1005.51 1004.90 1004.42 1004.05 1003.82 1003.70 1003.68 1003.73 1003.83 1003.96 1004.12 1004.29 1004.49 1004.72 1004.98 1005.28 1005.62 1005.99 1006.37 1006.73 1007.05 1007.32 1007.52 1007.65 1007.71 1007.73 1007.71 1007.70
1012.51 1012.07 1011.65 1011.27 1010.91 1010.56 1010.19 1009.80 1009.35 1008.83 1008.24 1007.60 1006.91 1006.22 1005.55 1004.95 1004.45 1004.07 1003.82 1003.70 1003.71 1003.81 1003.98 1004.19 1004.42 1004.65 1004.89 1005.13 1005.38 1005.65 1005.95 1006.28 1006.63 1006.99 1007.35 1007.68 1007.97 1008.20 1008.37 1008.48 1008.55 1008.58 1008.60
1011.99 1011.47 1010.98 1010.53 1010.12 1009.73 1009.35 1008.95 1008.51 1008.03 1007.50 1006.92 1006.32 1005.72 1005.16 1004.67 1004.29 1004.02 1003.89 1003.88 1003.99 1004.19 1004.45 1004.74 1005.04 1005.33 1005.61 1005.87 1006.13 1006.40 1006.67 1006.97 1007.29 1007.63 1007.97 1008.30 1008.60 1008.87 1009.08 1009.24 1009.36 1009.45 1009.52
1011.46 1010.85 1010.29 1009.78 1009.32 1008.91 1008.52 1008.14 1007.76 1007.34 1006.90 1006.43 1005.94 1005.47 1005.03 1004.67 1004.40 1004.25 1004.21 1004.29 1004.48 1004.75 1005.07 1005.41 1005.75 1006.08 1006.38 1006.65 1006.91 1007.16 1007.41 1007.69 1007.98 1008.29 1008.61 1008.93 1009.24 1009.52 1009.78 1009.99 1010.17 1010.31 1010.44
1010.87 1010.18 1009.55 1008.99 1008.50 1008.08 1007.72 1007.39 1007.07 1006.75 1006.43 1006.09 1005.75 1005.42 1005.13 1004.89 1004.74 1004.69 1004.73 1004.89 1005.12 1005.43 1005.78 1006.14 1006.49 1006.83 1007.14 1007.41 1007.67 1007.91 1008.15 1008.40 1008.67 1008.96 1009.26 1009.58 1009.89 1010.19 1010.47 1010.73 1010.95 1011.15 1011.32
1010.18 1009.42 1008.73 1008.14 1007.64 1007.24 1006.92 1006.66 1006.44 1006.25 1006.06 1005.88 1005.70 1005.53 1005.39 1005.29 1005.26 1005.29 1005.41 1005.60 1005.87 1006.18 1006.53 1006.89 1007.24 1007.57 1007.87 1008.15 1008.40 1008.64 1008.87 1009.12 1009.38 1009.65 1009.94 1010.25 1010.57 1010.87 1011.17 1011.46 1011.71 1011.95 1012.16
1009.36 1008.55 1007.84 1007.24 1006.76 1006.40 1006.14 1005.97 1005.87 1005.81 1005.78 1005.77 1005.76 1005.76 1005.78 1005.82 1005.89 1006.02 1006.19 1006.41 1006.68 1006.99 1007.32 1007.66 1007.99 1008.30 1008.59 1008.87 1009.12 1009.36 1009.60 1009.85 1010.10 1010.37 1010.66 1010.96 1011.27 1011.58 1011.88 1012.17 1012.44 1012.69 1012.91
1008.44 1007.63 1006.91 1006.33 1005.89 1005.58 1005.41 1005.34 1005.37 1005.46 1005.59 1005.75 1005.91 1006.09 1006.26 1006.44 1006.62 1006.83 1007.05 1007.30 1007.57 1007.85 1008.15 1008.46 1008.76 1009.05 1009.33 1009.59 1009.85 1010.09 1010.34 1010.59 1010.85 1011.12 1011.40 1011.69 1011.98 1012.28 1012.58 1012.86 1013.13 1013.37 1013.59
1007.53 1006.73 1006.05 1005.50 1005.12 1004.88 1004.79 1004.83 1004.98 1005.22 1005.50 1005.83 1006.17 1006.50 1006.83 1007.14 1007.43 1007.72 1007.99 1008.26 1008.52 1008.78 1009.05 1009.31 1009.58 1009.83 1010.09 1010.34 1010.60 1010.85 1011.10 1011.36 1011.61 1011.88 1012.15 1012.42 1012.70 1012.97 1013.24 1013.51 1013.75 1013.98 1014.18
1006.74 1006.00 1005.38 1004.90 1004.57 1004.41 1004.40 1004.54 1004.80 1005.15 1005.58 1006.05 1006.54 1007.02 1007.48 1007.92 1008.31 1008.67 1008.98 1009.27 1009.53 1009.77 1010.00 1010.22 1010.44 1010.67 1010.90 1011.13 1011.37 1011.62 1011.87 1012.12 1012.37 1012.62 1012.88 1013.13 1013.38 1013.62 1013.86 1014.09 1014.31 1014.51 1014.69
1006.24 1005.58 1005.03 1004.62 1004.37 1004.27 1004.33 1004.54 1004.88 1005.33 1005.86 1006.44 1007.05 1007.65 1008.22 1008.76 1009.23 1009.65 1010.01 1010.30 1010.56 1010.77 1010.97 1011.15 1011.33 1011.52 1011.71 1011.92 1012.14 1012.37 1012.61 1012.85 1013.08 1013.31 1013.54 1013.76 1013.97 1014.19 1014.39 1014.59 1014.79 1014.97 1015.13
1006.14 1005.58 1005.11 1004.78 1004.58 1004.53 1004.64 1004.89 1005.28 1005.78 1006.37 1007.02 1007.71 1008.39 1009.04 1009.64 1010.17 1010.63 1011.00 1011.31 1011.55 1011.74 1011.90 1012.04 1012.18 1012.32 1012.48 1012.66 1012.85 1013.06 1013.27 1013.49 1013.70 1013.91 1014.11 1014.29 1014.48 1014.65 1014.83 1015.00 1015.18 1015.35 1015.50
1006.48 1006.02 1005.65 1005.38 1005.23 1005.22 1005.34 1005.61 1006.00 1006.52 1007.13 1007.80 1008.50 1009.22 1009.90 1010.52 1011.07 1011.54 1011.92 1012.22 1012.44 1012.60 1012.73 1012.83 1012.92 1013.03 1013.15 1013.29 1013.45 1013.63 1013.82 1014.01 1014.20 1014.38 1014.54 1014.70 1014.85 1015.00 1015.16 1015.32 1015.48 1015.64 1015.80
Thickness
5527 5529 5532 5535 5538 5540 5542 5544 5545 5547 5549 5552 5553 5555 5556 5557 5557 5556 5557 5557 5556 5555 5554 5552 5551 5549 5548 5546 5544 5542 5540 5538 5538 5540 5536 5532 5527 5524 5520 5517 5515 5513 5511
5508 5511 5514 5517 5519 5522 5523 5525 5527 5529 5531 5534 5535 5537 5538 5540 5540 5540 5541 5541 5541 5540 5540 5538 5537 5535 5534 5532 5530 5528 5526 5524 5522 5522 5521 5516 5513 5509 5506 5504 5501 5498 5496
5489 5492 5495 5498 5501 5503 5505 5507 5509 5511 5513 5515 5517 5519 5520 5521 5522 5523 5523 5524 5525 5525 5524 5523 5521 5519 5519 5517 5515 5513 5512 5509 5507 5505 5504 5500 5497 5493 5490 5488 5485 5483 5480
5471 5474 5476 5479 5482 5484 5486 5489 5490 5492 5495 5496 5498 5500 5502 5502 5503 5504 5504 5506 5507 5508 5507 5506 5504 5503 5503 5501 5498 5497 5495 5493 5491 5489 5487 5484 5481 5477 5474 5472 5470 5467 5464
5453 5456 5458 5459 5462 5464 5467 5469 5471 5473 5475 5477 5479 5481 5482 5483 5485 5485 5485 5487 5489 5489 5489 5488 5487 5485 5483 5481 5480 5480 5478 5476 5475 5473 5471 5469 5466 5461 5458 5456 5454 5452 5449
5437 5438 5440 5441 5443 5446 5448 5449 5451 5453 5455 5457 5459 5462 5463 5464 5465 5465 5465 5467 5468 5469 5470 5470 5469 5466 5465 5462 5461 5459 5459 5459 5458 5456 5454 5453 5451 5445 5441 5438 5436 5434 5433
5419 5421 5422 5424 5426 5427 5428 5430 5432 5434 5436 5438 5440 5442 5444 5445 5445 5445 5445 5446 5448 5450 5450 5451 5451 5449 5447 5446 5444 5441 5440 5439 5437 5436 5435 5434 5431 5428 5425 5423 5419 5417 5415
5403 5403 5404 5405 5407 5408 5410 5411 5413 5415 5417 5419 5420 5422 5424 5425 5425 5426 5425 5426 5428 5430 5430 5431 5431 5431 5429 5427 5426 5424 5423 5422 5420 5417 5416 5414 5412 5409 5406 5404 5401 5398 5394
5386 5386 5387 5387 5389 5391 5392 5393 5394 5396 5399 5401 5402 5403 5404 5406 5406 5406 5405 5407 5409 5410 5411 5411 5411 5412 5410 5408 5407 5406 5404 5402 5399 5396 5394 5392 5391 5388 5386 5384 5381 5379 5379
5370 5370 5370 5370 5371 5373 5374 5375 5376 5377 5380 5382 5383 5384 5385 5387 5387 5386 5386 5387 5389 5390 5391 5391 5390 5391 5390 5388 5388 5388 5386 5383 5379 5377 5375 5373 5371 5369 5366 5364 5363 5360 5358
5353 5353 5353 5353 5354 5355 5356 5356 5357 5359 5361 5363 5364 5366 5366 5367 5368 5367 5367 5367 5368 5369 5371 5371 5372 5371 5371 5370 5369 5368 5367 5363 5360 5358 5356 5354 5352 5350 5348 5345 5343 5341 5340
5335 5335 5336 5336 5337 5337 5338 5338 5338 5340 5342 5343 5345 5347 5347 5347 5347 5348 5348 5347 5348 5349 5351 5352 5352 5352 5351 5351 5349 5347 5345 5343 5342 5339 5338 5336 5334 5332 5330 5327 5324 5322 5320
5318 5319 5319 5320 5321 5321 5321 5321 5321 5322 5323 5325 5326 5328 5329 5329 5329 5329 5329 5329 5330 5331 5332 5332 5332 5332 5332 5331 5329 5327 5326 5325 5324 5322 5321 5319 5316 5313 5311 5310 5308 5306 5304
5302 5304 5304 5304 5306 5305 5304 5304 5305 5305 5306 5307 5307 5308 5310 5310 5310 5311 5311 5312 5312 5312 5312 5312 5312 5312 5311 5310 5309 5308 5307 5305 5304 5303 5302 5300 5297 5296 5294 5293 5292 5290 5290
5286 5287 5287 5288 5288 5288 5288 5288 5288 5289 5288 5289 5290 5290 5291 5293 5293 5293 5293 5294 5293 5293 5292 5293 5293 5293 5293 5291 5290 5288 5287 5286 5285 5283 5282 5281 5280 5279 5278 5276 5274 5273 5273
5270 5271 5271 5271 5272 5272 5272 5273 5273 5273 5273 5273 5273 5274 5275 5275 5276 5276 5276 5277 5276 5276 5275 5276 5276 5276 5275 5273 5272 5271 5269 5268 5266 5265 5263 5262 5262 5261 5260 5259 5257 5256 5256
5253 5254 5254 5254 5255 5255 5256 5257 5259 5259 5258 5259 5259 5259 5259 5260 5260 5261 5261 5260 5260 5260 5258 5259 5258 5258 5257 5255 5254 5254 5252 5250 5248 5247 5246 5245 5244 5243 5242 5242 5241 5240 5240
5236 5237 5237 5238 5238 5239 5240 5240 5241 5243 5244 5245 5244 5243 5244 5244 5244 5245 5244 5244 5244 5243 5241 5241 5241 5240 5239 5238 5237 5236 5235 5233 5231 5230 5229 5228 5227 5226 5226 5225 5225 5224 5223
5220 5222 5221 5222 5222 5223 5224 5225 5225 5226 5227 5228 5229 5229 5228 5228 5228 5228 5227 5226 5227 5227 5225 5224 5224 5223 5222 5221 5220 5219 5218 5217 5216 5214 5214 5212 5212 5211 5211 5209 5209 5208 5207
5207 5207 5206 5207 5208 5208 5209 5210 5210 5211 5212 5213 5213 5214 5212 5212 5213 5212 5211 5210 5210 5210 5210 5209 5208 5206 5205 5205 5204 5203 5202 5202 5201 5200 5199 5198 5197 5196 5196 5195 5195 5195 5194
5195 5194 5193 5193 5194 5194 5195 5195 5195 5196 5197 5198 5198 5198 5198 5198 5198 5197 5196 5195 5194 5195 5194 5193 5192 5191 5191 5190 5189 5189 5188 5188 5187 5186 5186 5185 5183 5182 5182 5182 5181 5180 5179
5182 5182 5182 5182 5181 5181 5181 5181 5181 5181 5182 5183 5183 5183 5183 5182 5182 5182 5181 5180 5180 5179 5178 5178 5178 5178 5177 5176 5175 5175 5175 5174 5174 5172 5172 5170 5168 5168 5168 5167 5167 5167 5165
5171 5171 5171 5170 5169 5169 5168 5168 5168 5168 5168 5169 5169 5169 5168 5168 5168 5167 5167 5166 5165 5165 5165 5164 5164 5164 5163 5162 5162 5162 5162 5162 5161 5159 5158 5157 5156 5155 5155 5155 5154 5153 5153
5160 5160 5160 5160 5159 5158 5157 5157 5156 5155 5155 5154 5154 5154 5154 5154 5154 5153 5153 5152 5152 5151 5151 5151 5151 5151 5150 5149 5149 5149 5149 5148 5147 5146 5145 5144 5143 5143 5142 5142 5142 5141 5140
5150 5149 5148 5148 5147 5146 5146 5144 5143 5142 5141 5140 5140 5140 5140 5140 5140 5140 5139 5139 5138 5138 5138 5138 5138 5138 5138 5137 5137 5137 5137 5136 5135 5134 5133 5132 5132 5131 5131 5130 5130 5129 5128
5139 5138 5137 5136 5135 5134 5133 5133 5131 5130 5129 5129 5128 5128 5128 5128 5127 5127 5127 5127 5126 5126 5126 5127 5127 5127 5127 5126 5127 5126 5126 5126 5125 5124 5123 5122 5122 5122 5120 5119 5118 5118 5117